This is the latest recevied weather packets stored in our database for station/object EA4EUO. If no packets are shown the sender has not sent any weather packets the latest 1 day(s).
| Time | Temp. | Humidity | Pressure | Rain* | Wind** | Luminosity | Snow |
|---|---|---|---|---|---|---|---|
| 1778355899 | 22.22° C | 56% | 1007.4 hPa | - | - | - | - |
| 1778355239 | 22.22° C | 54% | 1007.2 hPa | - | - | - | - |
| 1778354582 | 22.78° C | 52% | 1007.1 hPa | - | - | - | - |
| 1778354399 | 22.78° C | 52% | 1006.9 hPa | - | - | - | - |
| 1778354159 | 22.78° C | 54% | 1006.8 hPa | - | - | - | - |
| 1778354039 | 22.78° C | 53% | 1006.8 hPa | - | - | - | - |
| 1778353859 | 22.78° C | 52% | 1006.7 hPa | - | - | - | - |
| 1778353079 | 23.33° C | 48% | 1006.3 hPa | - | - | - | - |
| 1778353022 | 23.33° C | 48% | 1006.3 hPa | - | - | - | - |
| 1778352839 | 23.33° C | 48% | 1006.3 hPa | - | - | - | - |
| 1778352779 | 23.33° C | 48% | 1006.3 hPa | - | - | - | - |
| 1778352722 | 23.33° C | 48% | 1006.3 hPa | - | - | - | - |
| 1778352419 | 23.89° C | 48% | 1006.2 hPa | - | - | - | - |
| 1778352362 | 23.89° C | 46% | 1006.1 hPa | - | - | - | - |
| 1778351583 | 23.89° C | 48% | 1005.9 hPa | - | - | - | - |
| 1778351159 | 24.44° C | 49% | 1005.7 hPa | - | - | - | - |
| 1778351039 | 24.44° C | 49% | 1005.7 hPa | - | - | - | - |
| 1778350499 | 25° C | 47% | 1005.6 hPa | - | - | - | - |
| 1778350379 | 25° C | 46% | 1005.6 hPa | - | - | - | - |
| 1778350319 | 25° C | 46% | 1005.6 hPa | - | - | - | - |
| 1778350262 | 25° C | 46% | 1005.6 hPa | - | - | - | - |
| 1778349480 | 25.56° C | 44% | 1005.5 hPa | - | - | - | - |
| 1778349419 | 25.56° C | 44% | 1005.5 hPa | - | - | - | - |
| 1778349299 | 25.56° C | 44% | 1005.5 hPa | - | - | - | - |
| 1778349239 | 25.56° C | 44% | 1005.5 hPa | - | - | - | - |
* Rain since midnight (hover to see other rain measurements)
** Current wind speed in m/s (hover to see current wind gust speed)